RH
83 88 91 87 88 90 90 87 87 85 87 88 91 90 87 84 82 85 92 86 88 93 70 64 60 61 50 45 56 42 57 68 70 71 78 64 72 46 34 29 72 81 98 86 79 74 71 31 23 32 33 34 28 27
88 91 92 89 89 90 85 88 89 87 92 86 88 86 85 84 83 79 95 87 76 93 88 60 65 52 55 40 40 45 49 67 82 76 61 60 87 84 53 69 42 73 74 83 74 64 45 35 32 30 30 33 29 32
93 95 91 88 90 86 88 90 89 90 90 87 87 85 89 86 82 87 94 89 94 91 93 78 67 59 48 48 42 59 48 51 56 61 53 64 72 73 87 62 53 51 42 63 64 50 52 44 34 26 23 28 23 21
95 87 89 89 91 90 88 90 87 88 88 90 89 88 88 85 84 89 94 92 83 72 98 90 60 62 42 45 62 62 67 65 56 63 63 74 84 45 72 49 63 41 64 51 52 45 47 32 31 33 30 28 29 26
95 90 91 91 94 90 88 88 88 88 93 91 85 85 84 84 88 94 90 88 58 60 78 82 51 42 40 44 47 56 83 77 95 91 85 73 54 60 59 51 58 30 34 53 59 41 53 43 33 39 38 35 29 31
94 92 92 92 91 93 91 90 88 87 84 83 87 88 85 84 90 90 97 92 73 74 79 85 50 49 44 44 46 55 70 70 78 74 77 48 40 48 83 64 36 26 28 31 40 43 46 48 40 36 40 39 32 36
95 94 94 92 91 90 90 93 90 91 90 84 88 92 88 88 71 81 86 69 72 81 68 69 72 66 49 46 51 56 55 82 77 87 73 60 56 49 83 76 39 35 35 36 38 39 44 47 46 40 39 37 36 32
95 95 96 95 91 91 91 91 92 90 89 90 89 89 83 84 80 71 62 69 64 56 53 71 79 85 72 73 76 61 74 77 69 70 62 69 62 76 84 56 50 47 42 35 43 43 47 50 47 41 40 41 42 41
94 94 94 94 93 94 92 88 89 91 89 88 86 85 91 91 94 71 76 66 78 67 69 79 87 97 93 78 72 79 77 88 57 84 76 67 82 92 93 86 79 71 66 61 53 52 48 48 47 44 44 47 48 46
94 94 92 92 92 91 89 86 85 85 84 79 73 74 98 83 82 70 59 64 61 63 74 90 87 99 95 100 98 89 87 84 81 80 58 83 92 78 78 82 82 80 74 61 67 68 65 63 57 55 51 50 49 54
89 92 93 92 88 88 88 84 78 77 83 84 88 98 83 83 72 80 71 67 62 79 78 80 87 93 94 100 100 98 99 95 98 81 84 85 92 79 76 88 87 81 76 69 64 63 63 61 60 61 65 82 87 85
87 89 91 90 89 89 88 85 86 88 82 90 82 70 80 82 93 96 88 96 82 81 91 95 93 97 100 98 98 97 100 100 99 87 98 96 95 82 80 84 85 87 84 82 77 80 82 84 85 89 93 95 94 91
89 88 86 84 86 88 88 86 85 84 84 74 74 88 96 100 100 95 90 86 98 99 99 99 100 99 99 97 100 100 100 100 99 99 94 94 86 84 83 84 84 86 88 88 89 88 88 91 91 93 94 95 94 94
89 87 88 89 90 90 87 86 85 78 84 94 99 99 99 94 94 97 97 100 100 100 99 99 100 100 100 100 100 100 100 100 98 94 94 93 93 94 94 93 90 95 96 95 96 95 95 94 96 95 96 96 95 96
89 86 86 87 88 86 82 80 79 67 69 85 75 89 90 96 94 95 100 100 98 96 99 100 100 99 100 100 100 99 96 87 88 93 93 95 95 94 94 94 95 96 96 96 96 96 96 96 95 96 96 96 95 96
82 78 81 91 91 86 85 72 67 65 72 73 79 91 86 86 89 89 90 95 90 97 100 100 100 100 95 94 82 94 75 89 93 94 94 93 95 96 96 96 97 96 96 96 96 96 95 95 95 96 95 95 96 95
77 76 92 87 80 76 71 69 75 86 87 91 95 87 88 83 92 93 95 92 92 100 100 88 89 96 74 75 81 81 91 95 95 95 94 95 96 97 96 96 96 96 95 96 95 95 96 96 92 87 92 95 93 94
85 87 86 82 80 74 59 69 88 87 90 93 93 94 92 92 93 91 91 93 95 83 76 92 87 82 90 86 88 95 92 95 94 94 95 95 96 96 95 96 96 95 94 94 94 94 94 93 90 93 92 92 91 92
93 93 91 88 89 71 79 90 74 84 93 94 93 92 93 95 91 94 95 94 77 73 82 83 84 88 91 92 95 97 95 93 92 91 92 95 95 95 95 94 94 93 92 93 89 90 90 92 92 91 92 84 88 91
91 89 86 79 73 69 89 94 72 83 91 94 95 94 93 94 94 93 90 82 75 76 84 88 91 94 93 94 93 95 93 92 88 89 90 90 91 91 94 91 91 91 87 82 83 82 78 78 78 78 79 82 87 86
90 86 72 63 67 71 92 82 80 75 86 88 81 80 84 75 80 84 80 61 79 80 88 92 94 96 93 92 88 86 90 85 92 89 87 87 88 80 78 78 76 74 78 79 80 78 80 78 72 74 84 88 85 85
75 72 70 62 69 69 75 72 69 68 66 71 66 65 75 85 83 77 64 79 85 91 89 87 88 82 82 88 89 85 88 84 85 82 80 76 81 80 81 78 74 80 78 80 78 84 80 73 76 77 83 87 80 78
63 60 68 74 96 92 80 58 83 57 73 66 61 66 75 78 64 50 75 74 88 88 79 77 81 76 80 78 75 74 72 70 73 73 76 73 71 76 72 71 73 80 77 66 62 70 78 73 75 82 80 80 82 82
64 90 95 93 84 91 85 80 54 59 64 65 64 73 75 72 55 67 83 83 87 73 78 90 77 72 68 70 70 70 64 61 67 73 64 58 62 62 60 62 64 68 70 62 69 75 76 84 79 75 82 80 82 82
75 88 89 86 84 79 77 77 74 66 74 68 70 75 76 64 72 74 81 85 84 90 89 82 79 74 81 81 72 64 63 54 60 63 70 62 69 62 66 65 65 63 68 81 82 80 81 83 81 79 76 82 80 80
87 84 79 78 77 75 72 78 76 74 72 77 79 70 71 71 72 83 80 92 88 89 92 92 84 74 68 60 65 66 63 51 53 67 59 57 62 76 74 74 73 78 71 80 80 80 76 77 79 77 79 74 80 80
82 85 72 61 64 66 77 75 66 73 80 83 76 75 72 76 82 82 82 84 79 87 80 81 72 70 67 64 62 61 60 62 64 59 58 58 62 64 75 82 84 78 74 76 80 80 80 79 79 79 81 78 80 82
74 73 87 80 79 72 78 75 76 78 78 68 66 81 81 80 86 88 79 82 84 75 74 73 72 69 74 75 74 73 72 73 76 66 68 68 65 70 73 78 76 73 76 80 78 79 79 81 81 81 81 82 84 80
78 71 69 87 76 77 81 79 80 73 70 80 77 77 79 78 79 84 84 81 76 77 83 84 83 80 79 76 78 77 76 79 73 69 67 75 78 86 73 75 75 76 77 78 76 76 76 81 82 81 79 82 80 80
80 71 75 78 82 85 90 80 87 84 69 72 69 69 73 79 88 76 78 82 85 88 87 84 83 86 85 87 83 80 82 82 84 87 86 86 88 79 79 80 80 80 80 80 79 74 78 79 80 82 83 82 80 82
68 70 70 72 83 85 86 86 84 81 82 88 82 83 83 85 81 78 78 79 80 81 83 84 83 80 80 80 81 76 89 87 82 79 81 80 76 80 81 79 80 80 80 81 80 81 81 81 81 82 80 80 81 82
78 74 78 81 86 85 93 93 81 84 85 83 87 82 88 85 85 85 81 83 83 86 93 80 83 87 81 79 80 85 86 77 77 78 74 79 82 82 79 78 83 82 80 80 80 82 82 80 83 83 84 81 83 84
81 80 77 81 86 82 83 76 71 78 77 78 82 80 86 86 88 90 76 81 92 88 82 87 84 83 79 77 77 79 81 81 88 88 91 92 91 91 87 81 82 84 81 82 81 82 81 79 82 82 83 85 85 85
Wind_Speed
23 24 24 22 22 23 22 20 20 17 19 29 29 33 33 34 32 17 9 19 13 2 11 10 9 12 15 18 15 13 6 4 8 12 12 9 6 9 12 10 8 8 3 5 7 9 13 6 11 17 10 6 5 8
22 23 22 20 17 16 7 13 16 15 23 28 29 29 31 32 31 20 5 13 9 1 2 5 4 6 13 17 12 12 13 14 4 5 6 6 3 4 6 4 6 4 9 4 6 2 5 7 15 10 6 5 7 5
23 18 13 11 10 6 6 10 7 19 24 26 28 29 28 31 33 14 8 10 4 4 2 2 7 8 10 14 9 9 11 9 7 16 5 3 3 3 3 7 5 12 9 7 2 10 16 2 11 14 11 9 11 7
15 8 9 9 10 8 9 13 18 21 25 27 28 29 29 30 30 11 9 9 7 6 3 4 4 12 7 5 10 5 6 1 1 6 6 3 4 6 5 5 7 7 17 16 12 12 13 27 11 8 10 12 3 4
11 5 9 10 12 13 14 15 19 23 26 29 29 28 28 32 22 7 8 6 1 5 3 2 4 8 4 6 7 2 5 8 4 2 4 5 5 2 2 5 6 9 11 7 6 5 2 12 11 9 8 13 10 4
8 7 10 11 14 15 17 17 18 21 25 26 30 31 29 23 17 8 4 3 2 3 2 5 2 5 7 5 11 8 9 13 7 6 9 5 6 4 3 6 10 11 7 7 7 5 4 5 9 6 5 7 16 6
10 11 12 12 15 16 18 20 18 23 23 29 33 24 26 21 8 4 2 7 5 3 3 2 3 3 5 9 8 7 8 2 3 2 4 5 7 7 3 6 8 9 8 9 8 9 7 4 5 10 6 7 6 6
16 16 15 15 17 18 22 24 25 28 28 33 25 20 22 14 9 9 7 8 4 4 2 1 2 1 4 4 5 5 4 2 4 3 2 5 4 1 3 10 8 9 12 12 10 6 6 5 6 7 5 5 4 4
18 20 22 21 22 22 26 28 28 28 31 30 26 17 7 5 3 4 6 5 1 1 3 1 1 3 8 5 4 5 5 5 3 3 2 1 4 2 10 15 17 17 12 13 12 8 7 6 7 5 5 5 6 1
20 20 22 25 27 31 28 29 28 27 22 14 6 4 4 2 13 8 2 3 3 3 2 2 3 2 2 3 2 5 3 3 4 5 4 4 4 8 15 14 13 16 18 14 10 12 14 12 7 4 5 5 6 6
20 21 21 23 25 26 25 23 23 17 8 1 3 4 7 3 1 1 3 3 3 2 4 3 5 5 2 4 3 2 4 5 4 5 7 5 5 12 16 14 12 14 14 14 14 14 15 12 6 6 9 16 16 18
19 21 23 22 23 22 19 14 10 1 4 3 9 6 2 2 3 2 3 1 3 3 3 4 5 6 4 9 4 4 3 2 5 5 5 4 6 13 13 13 13 13 12 13 14 14 16 18 16 16 14 14 15 16
18 19 20 20 16 15 12 11 11 9 3 3 3 4 1 2 3 3 5 2 1 5 5 3 3 2 3 4 3 4 3 3 1 4 5 6 12 11 11 10 12 12 13 13 15 15 16 17 17 17 15 13 16 17
16 18 18 17 15 13 14 14 13 7 5 4 3 4 5 5 6 5 5 4 3 3 6 5 1 0 1 3 3 4 1 2 4 5 6 8 11 11 10 10 11 14 15 16 16 16 17 18 19 18 17 15 16 17
19 18 14 13 13 13 11 9 9 5 5 6 7 6 7 5 5 6 5 2 4 5 4 2 3 3 5 5 5 3 4 7 8 6 4 8 11 11 12 12 12 13 13 14 15 15 17 17 17 18 17 16 18 17
17 13 7 10 10 11 12 8 6 5 5 5 9 4 8 4 7 7 7 6 6 7 3 2 3 4 7 5 6 9 5 7 6 5 6 8 11 11 11 12 13 13 14 14 15 16 16 17 17 17 18 17 16 16
4 4 6 12 13 11 12 4 5 9 7 5 4 7 5 3 7 6 6 6 4 3 3 3 7 7 4 5 6 6 5 6 8 8 8 11 11 12 12 14 14 14 15 15 15 16 15 14 15 16 17 14 14 14
5 5 11 6 3 2 5 7 6 6 8 5 5 8 7 6 7 6 6 8 3 3 4 7 5 9 8 6 4 7 8 8 8 8 9 11 12 13 12 14 13 14 15 15 15 15 14 13 13 11 12 10 10 10
8 6 6 6 4 3 5 5 4 6 3 2 5 6 5 8 11 10 8 8 10 8 6 6 8 6 6 6 8 8 8 8 8 9 10 12 12 11 12 13 14 15 15 14 14 11 11 15 12 10 9 9 9 8
15 13 10 7 7 3 5 4 3 5 3 3 4 8 9 9 8 11 12 9 9 7 9 8 6 7 5 7 7 7 8 8 8 9 9 9 9 12 13 11 10 11 11 13 12 12 10 10 9 9 9 10 8 8
6 4 4 4 4 7 5 2 4 4 4 4 4 6 7 9 14 14 12 10 13 7 7 7 8 8 10 9 9 9 11 10 9 8 9 8 8 9 9 9 10 9 9 9 9 10 11 9 8 7 7 7 7 8
1 2 2 3 4 4 4 6 4 4 4 5 6 5 5 8 9 10 10 11 9 10 9 9 9 9 11 13 12 13 12 13 12 10 11 10 9 9 9 8 8 9 9 8 8 8 7 8 7 7 7 7 6 6
2 2 3 3 5 6 4 3 4 4 3 3 3 5 5 4 5 5 7 7 7 7 9 9 12 13 12 12 12 14 12 12 9 9 8 8 8 8 8 9 8 7 7 8 8 7 7 8 7 7 7 7 7 6
4 5 5 5 6 5 2 4 3 4 4 4 4 5 5 4 4 6 6 5 6 7 8 7 7 8 9 11 10 9 8 8 8 8 7 7 7 8 8 8 8 8 8 7 7 7 7 6 7 6 6 7 7 6
5 8 4 7 4 4 4 4 4 5 5 5 4 5 4 3 4 5 5 4 5 6 6 7 7 8 8 8 7 8 9 8 7 8 8 8 6 5 7 7 8 8 7 6 6 6 6 5 6 6 6 7 8 7
8 9 6 4 4 4 4 4 4 5 4 5 6 3 3 4 5 5 4 6 7 6 6 6 6 7 8 8 7 7 7 5 7 7 8 8 7 6 5 5 5 7 7 6 6 7 7 6 6 7 7 7 6 7
6 6 5 3 3 5 6 6 7 7 6 5 4 3 2 4 5 4 5 6 6 4 6 7 7 7 7 7 7 7 7 8 7 7 6 7 7 7 7 6 6 5 6 8 7 7 7 6 6 6 6 6 6 6
6 6 6 6 7 8 6 5 6 5 4 4 3 5 4 5 4 4 4 5 6 6 6 7 8 7 7 7 6 5 4 4 5 4 6 6 6 6 6 5 3 3 4 3 4 5 6 7 7 7 6 6 5 5
6 4 5 7 8 9 9 6 5 4 5 3 3 4 4 3 5 6 6 5 5 5 5 5 5 5 5 6 6 6 6 6 5 4 4 3 2 6 5 4 5 5 5 6 5 3 4 4 5 5 5 6 6 5
4 3 6 8 7 7 6 6 6 4 6 7 7 10 10 6 5 5 4 3 4 5 5 5 3 2 3 2 4 5 6 6 6 5 5 5 5 4 4 5 5 5 5 5 6 7 6 6 8 5 3 4 4 5
3 4 6 6 6 6 7 7 7 8 9 9 8 9 8 5 3 5 5 5 5 4 4 4 3 2 2 3 4 2 4 5 4 5 5 3 2 3 5 4 5 5 5 6 6 7 6 6 6 7 7 7 7 6
5 5 6 6 5 4 6 3 3 5 5 7 6 5 5 4 4 3 2 1 2 3 3 2 3 5 5 4 4 4 3 2 3 2 3 4 5 7 6 6 6 4 5 6 6 7 7 7 6 7 8 9 9 8
8 8 8 7 5 5 2 3 3 4 3 3 3 3 5 4 4 4 2 2 4 4 4 5 5 5 4 4 4 3 2 5 4 3 4 4 4 4 5 5 6 7 7 7 7 7 8 9 8 8 9 9 10 9
Wind_Direction
298 298 299 296 293 289 267 245 255 242 231 190 191 190 187 186 181 171 200 198 191 164 181 168 198 207 228 212 212 216 181 236 232 180 203 221 232 225 232 188 161 160 259 214 226 220 240 216 230 239 235 180 262 265
300 303 301 298 307 311 264 273 241 226 194 177 181 179 180 176 168 158 189 205 174 208 14 120 141 232 269 253 234 194 200 187 167 249 202 208 264 187 173 198 141 203 176 269 312 310 302 203 257 281 286 284 286 232
306 300 301 321 334 352 10 335 191 166 168 165 165 163 166 158 161 158 164 162 112 181 37 233 191 209 234 253 237 233 194 162 180 194 229 231 211 188 198 211 176 207 198 196 262 285 305 329 273 242 260 261 240 264
328 343 4 21 40 51 65 68 112 120 134 140 146 148 153 153 156 157 160 157 212 112 135 163 159 201 220 231 93 327 334 128 164 273 213 191 198 217 207 232 190 190 170 224 210 240 291 284 291 291 309 305 300 305
344 24 49 53 65 68 84 100 110 118 121 130 136 140 140 143 153 183 149 213 182 104 154 162 175 204 215 195 195 192 299 259 144 326 246 195 201 290 269 226 235 215 225 241 258 258 288 310 337 352 356 341 280 244
29 65 78 72 90 87 91 93 101 116 125 125 127 127 132 138 115 114 86 327 315 59 36 166 126 165 210 216 201 212 229 248 181 184 216 243 217 257 239 231 241 252 263 255 247 254 238 290 322 324 312 329 320 204
64 78 85 86 88 96 97 94 103 110 124 132 126 121 130 146 162 79 114 150 137 101 242 158 138 23 260 207 200 203 233 244 261 228 261 210 232 213 261 261 299 316 312 317 343 271 227 251 312 343 329 304 305 315
61 83 76 95 101 93 102 100 97 121 109 116 122 104 90 85 83 45 56 112 182 175 27 136 130 265 263 183 202 185 190 241 233 252 273 219 277 147 239 3 3 347 312 296 336 344 0 8 323 304 321 343 1 295
53 71 79 90 103 104 110 107 102 93 100 105 107 99 53 37 76 102 31 39 4 26 146 151 262 32 328 199 168 139 171 203 258 208 258 251 185 73 13 357 1 1 358 342 338 330 327 310 308 331 334 339 296 239
61 69 81 90 95 106 106 105 106 107 114 110 76 79 89 61 112 141 72 130 171 166 136 156 107 157 321 294 124 128 138 210 210 206 166 205 83 57 14 355 352 350 349 346 359 355 349 337 313 332 344 355 346 63
83 81 82 93 99 102 101 103 105 95 60 285 67 44 82 87 310 326 129 156 162 205 175 178 189 248 157 236 120 101 148 204 200 186 187 189 80 5 357 354 357 351 347 9 15 23 14 352 7 71 58 47 52 59
89 88 93 96 100 105 108 117 148 284 42 56 107 112 147 55 78 124 148 174 223 210 137 179 205 165 197 224 136 161 168 67 194 157 100 83 30 1 357 358 6 3 18 29 37 47 46 42 45 64 65 69 69 74
102 105 105 100 80 70 62 43 27 15 247 145 90 80 73 152 210 177 159 195 104 357 8 354 298 186 216 12 93 133 138 196 21 66 70 38 2 3 8 11 24 29 39 50 53 60 66 67 61 63 70 62 73 73
107 102 90 76 70 62 50 33 24 26 35 48 42 59 10 36 40 30 352 343 357 319 326 308 212 102 289 91 39 77 62 58 82 67 69 17 10 14 24 34 40 40 43 49 51 55 60 64 63 60 60 66 71 72
108 108 94 78 70 59 53 26 54 51 51 46 14 44 44 345 35 355 332 290 6 328 323 310 35 14 22 55 16 67 58 66 30 61 37 21 24 35 41 47 53 54 54 55 55 57 59 61 65 67 66 72 74 76
123 109 63 67 64 35 22 37 23 55 61 61 40 15 348 5 12 358 353 353 4 337 327 329 27 52 47 38 46 15 61 40 56 50 36 36 43 43 52 55 57 60 61 63 62 64 65 63 64 68 65 62 66 71
99 93 100 70 56 37 14 55 46 44 39 45 75 31 6 35 357 357 337 332 306 281 51 40 45 16 53 59 61 25 41 75 67 64 57 41 48 56 56 54 53 57 61 63 65 63 65 68 70 67 67 63 66 65
69 129 105 113 355 14 51 47 66 59 49 9 29 10 6 18 3 15 15 352 2 48 31 51 24 34 28 45 47 91 87 83 74 60 48 61 57 53 55 61 60 60 60 57 55 57 57 59 62 64 72 75 76 71
108 97 66 23 356 23 63 55 73 91 83 90 52 35 16 33 17 11 20 31 35 39 75 54 44 35 49 23 53 84 84 83 87 77 65 50 53 63 67 63 59 56 56 57 58 56 53 48 46 45 52 52 48 39
75 49 28 6 341 92 82 78 52 77 75 127 133 80 56 36 43 44 34 35 44 54 54 49 41 33 49 42 27 36 94 95 97 91 77 64 55 53 50 53 58 65 62 55 49 51 56 55 52 49 47 39 50 46
50 312 345 8 43 53 69 78 88 112 142 77 104 68 70 59 46 39 47 37 43 46 73 77 77 63 56 58 57 55 55 58 67 71 80 76 65 65 65 63 60 59 59 57 56 45 40 47 40 45 53 68 44 24
117 274 25 37 70 67 62 3 77 122 75 109 76 60 68 48 48 47 46 40 63 48 55 69 71 71 66 60 66 68 73 74 74 72 65 62 60 56 51 50 57 56 54 57 58 48 53 41 18 48 32 24 69 62
256 357 35 41 81 58 46 6 57 20 73 83 61 51 48 57 48 70 71 40 58 63 70 71 74 74 78 74 69 63 62 68 71 70 68 66 67 63 60 52 45 47 54 51 47 47 55 20 48 33 35 33 19 36
36 47 31 45 51 87 77 37 44 62 47 49 58 68 43 44 88 71 68 60 54 44 44 71 94 88 75 62 52 46 58 69 69 59 63 76 75 69 64 59 48 33 31 38 48 44 32 47 19 36 41 39 15 15
68 16 2 61 38 84 75 63 34 59 52 55 65 54 44 28 63 72 78 93 57 56 54 54 69 81 86 84 75 63 44 54 66 64 31 26 48 81 103 96 70 44 23 30 30 51 39 33 29 19 33 51 17 9
74 22 30 39 44 61 61 79 65 62 67 66 54 57 20 50 65 69 70 83 72 49 27 49 78 76 61 53 64 51 24 33 85 72 52 41 29 23 41 38 54 52 30 22 20 17 37 23 31 16 18 32 48 8
65 60 44 16 67 103 99 71 59 54 50 50 56 48 65 70 75 77 85 60 87 59 41 38 58 75 83 81 72 62 57 48 53 71 69 63 52 47 44 41 39 19 8 12 13 9 8 8 11 5 17 5 21 6
53 42 66 42 58 30 73 54 43 46 57 353 65 40 50 39 74 52 90 91 94 85 70 58 50 56 59 56 55 56 74 122 143 142 126 106 82 66 47 74 80 31 353 41 12 2 359 352 352 351 9 344 347 345
65 87 78 39 58 50 31 33 63 48 329 307 79 80 91 49 89 110 106 108 114 109 101 96 92 98 96 85 60 42 33 16 16 45 28 25 48 60 34 22 6 16 1 337 358 9 28 332 330 340 330 321 323 325
63 47 91 47 53 58 35 45 83 71 70 76 92 104 99 85 56 88 116 129 109 88 85 89 89 86 72 87 91 77 58 40 25 10 10 28 34 14 352 11 350 359 344 345 338 335 323 6 318 294 281 297 324 356
76 74 73 67 78 100 123 125 101 75 64 70 80 97 115 120 85 34 52 71 91 117 125 115 105 90 94 44 14 25 118 96 70 54 16 349 6 343 16 351 335 349 324 328 336 321 328 325 318 319 316 326 318 299
40 72 116 107 117 166 214 190 92 93 109 95 96 124 168 144 108 123 102 175 176 124 46 58 140 113 79 78 87 85 35 55 66 53 20 357 356 13 354 341 321 317 325 326 311 306 308 318 311 312 307 317 327 327
103 91 103 113 136 135 158 148 105 107 80 80 65 36 36 23 84 94 130 336 358 91 112 81 84 90 88 56 50 105 217 97 89 72 75 46 9 347 318 310 327 346 335 319 315 308 308 311 312 318 315 307 305 315